FW4822 Weather Reports


time (UTC)temp
F
wind
direction
speed
knots
gust
knots
rain 1hr
in
rain 24hr
in
rain mn
in
humidity
%
barometer
mb
20260904144609 73 307 0.0 4.3 0.00 0.00 0.00 79 1012.9
20260904141551 71 309 0.9 4.3 0.00 0.00 0.00 83 1013.4
20260904140048 70 360 2.6 6.1 0.00 0.00 0.00 83 1013.5
20260904134546 69 46 0.0 5.2 0.00 0.00 0.00 86 1013.4
20260904131547 69 304 0.0 4.3 0.00 0.01 0.00 89 1013.0
20260904130044 68 301 0.0 1.7 0.00 0.01 0.00 91 1013.1
20260904124542 67 302 0.0 0.9 0.00 0.01 0.00 91 1013.2
20260904121533 67 302 0.0 1.7 0.00 0.01 0.00 91 1013.2
20260904120031 67 302 0.0 0.9 0.00 0.01 0.00 93 1013.2
20260904114529 66 302 0.0 2.6 0.00 0.01 0.00 94 1013.3
20260904111537 65 300 0.9 4.3 0.00 0.01 0.00 94 1012.9
20260904110039 65 288 0.9 3.5 0.00 0.01 0.00 94 1013.1
20260904104540 65 290 0.9 3.5 0.00 0.01 0.00 94 1012.9
20260904101536 65 271 0.0 0.9 0.00 0.01 0.00 94 1012.8
20260904100037 65 271 0.0 1.7 0.00 0.01 0.00 93 1012.7
20260904094534 66 271 0.0 1.7 0.00 0.01 0.00 93 1012.7
20260904091546 66 288 0.0 3.5 0.00 0.04 0.00 93 1012.8
20260904090029 66 318 0.0 3.5 0.00 0.04 0.00 93 1012.8
20260904084526 66 311 0.0 4.3 0.00 0.04 0.00 93 1012.5
20260904081527 66 18 1.7 4.3 0.00 0.05 0.00 94 1012.2
20260904080027 66 32 0.9 5.2 0.00 0.05 0.00 95 1012.2
20260904074547 66 325 0.0 1.7 0.00 0.05 0.00 95 1012.2
20260904071523 66 269 0.0 3.5 0.00 0.09 0.00 94 1012.1
20260904070022 66 322 0.0 2.6 0.00 0.09 0.00 94 1012.1
20260904064520 66 322 0.0 2.6 0.00 0.09 0.00 94 1011.9
20260904061518 67 323 0.0 0.9 0.00 0.10 0.09 93 1011.6
20260904060018 67 323 0.0 1.7 0.00 0.10 0.09 93 1011.8
20260904054521 67 284 0.0 2.6 0.00 0.10 0.09 93 1011.9
20260904051512 67 280 0.0 1.7 0.00 0.14 0.09 93 1012.1
20260904050012 68 277 0.0 2.6 0.00 0.14 0.09 93 1012.0
20260904044514 68 277 0.0 1.7 0.00 0.14 0.09 93 1012.1
20260904041523 68 277 0.0 1.7 0.00 0.47 0.09 92 1012.0
20260904040016 69 277 0.0 1.7 0.00 0.47 0.09 92 1012.0
20260904034515 69 284 0.0 2.6 0.00 0.47 0.09 91 1012.4
20260904031510 70 282 0.9 6.1 0.00 0.47 0.09 90 1012.2
20260904030010 70 323 0.0 3.5 0.00 0.47 0.09 91 1012.2
20260904024510 70 285 0.0 7.0 0.00 0.47 0.09 88 1012.2
20260904021529 72 263 0.0 4.3 0.00 0.72 0.09 86 1012.3
20260904020011 73 283 0.9 5.2 0.00 0.72 0.09 85 1012.3
20260904014511 74 270 0.0 5.2 0.00 0.72 0.09 87 1012.6
20260904011512 74 286 0.0 2.6 0.00 0.75 0.09 86 1012.8
20260904010018 74 276 0.0 3.5 0.00 0.75 0.09 87 1012.6
20260904004511 75 273 0.0 1.7 0.00 0.75 0.09 86 1012.6
20260904001507 75 275 0.0 3.5 0.00 0.75 0.09 84 1012.6
20260904000006 76 286 0.0 3.5 0.00 0.75 0.09 84 1012.4
20260903234510 76 296 0.0 1.7 0.00 0.75 0.09 82 1012.2
20260903231502 76 306 0.0 2.6 0.00 0.75 0.09 81 1012.5
20260903230007 77 323 0.0 2.6 0.00 0.75 0.09 81 1012.4
20260903224504 78 291 0.0 2.6 0.00 0.75 0.09 80 1012.5
20260903221507 79 261 0.0 4.3 0.00 0.75 0.09 77 1011.9
20260903220005 80 271 0.0 2.6 0.00 0.75 0.09 75 1011.4
20260903214503 82 287 0.0 2.6 0.00 0.75 0.09 72 1011.4
20260903211506 84 293 0.9 4.3 0.00 0.75 0.09 69 1011.6
20260903210005 85 234 0.9 2.6 0.00 0.75 0.09 69 1011.4
20260903204503 84 274 0.9 4.3 0.00 0.75 0.09 69 1011.4
20260903201556 82 286 2.6 7.8 0.00 0.75 0.09 68 1011.8
20260903200054 83 232 1.7 6.1 0.00 0.75 0.09 69 1012.1
20260903194553 84 281 0.9 5.2 0.00 0.75 0.09 69 1012.1
20260903191547 85 235 0.0 6.1 0.00 0.76 0.09 66 1012.4
20260903190046 85 304 0.9 4.3 0.00 0.76 0.09 65 1012.5
20260903184543 85 171 0.9 5.2 0.00 0.76 0.09 65 1012.6
20260903181539 84 260 0.0 4.3 0.00 0.76 0.09 67 1012.9
20260903180054 83 238 1.7 4.3 0.00 0.76 0.09 68 1013.2
20260903174534 83 282 0.9 5.2 0.00 0.76 0.09 70 1013.2
20260903171528 82 188 0.9 5.2 0.00 0.76 0.09 71 1013.4
20260903170025 81 270 0.0 4.3 0.00 0.76 0.09 74 1013.5
20260903164523 80 178 0.9 4.3 0.00 0.76 0.09 73 1013.5
20260903161520 77 262 2.6 8.7 0.00 0.76 0.09 77 1014.3
20260903160016 76 293 2.6 7.0 0.00 0.76 0.09 79 1014.1
20260903154514 75 297 0.9 4.3 0.00 0.76 0.09 81 1014.4
20260903151506 73 281 0.0 5.2 0.00 0.76 0.09 88 1014.6
20260903150000 72 236 0.0 4.3 0.00 0.76 0.09 92 1014.8